2022-072D (52938 NORAD) Tracking and Keplerian Element Data

This shows tracking and keplerian element data for the satellite.

Feedback or suggestion? Click here.




ElementValue
Catalog52938
Name2022-072D
Epoch Orbit163
Epoch Day192.30269676
Epoch Year2022
RAAN356.9344
Inclination9.8997
Eccentricity0.0024239
Argument of Perigee340.8938
Mean Anonmoly48.0736
Mean Motion15.06440298
Decay Rate6.145E-05
L11 52938U 22072D 22192.30269676 .00006145 00000+0 35026-3 0 9999
L22 52938 9.8997 356.9344 0024239 340.8938 48.0736 15.06440298 1637

Live tracking and technical data element details for 2022-072D (NORAD 52938). 2022-072D can be tracked NOW for your location showing map with azimuth and elevation plus other details from your city location.

Track the satellite on the map from your city or location and see movement details for azimuth, elevation, latitude, longitude, range, height, and movement on the map or in text.







IsCatalogInMostPopularTable: catalog: 52938, numindb: 9
Update: records affected: 1



GetName: 52938 2022-072D

Hit Count: updated at: Thu, 06 Oct 2022 04:45:55 GMT